Tracking 27122 objects as of 24-Mar-2023
HD Live streaming from Space Station
objects crossing your sky now

STARLINK-3890

Track STARLINK-3890 now!
10-day predictions
STARLINK-3890 is classified as:


NORAD ID: 52455
Int'l Code: 2022-049E
Perigee: 545.9 km
Apogee: 547.6 km
Inclination: 53.2 °
Period: 95.4 minutes
Semi major axis: 6917 km
RCS: Unknown
Launch date: May 6, 2022
Source: United States (US)
Launch site: AIR FORCE EASTERN TEST RANGE (AFETR)
Your satellite tracking list
Your tracking list is empty




NASA's NSSDC Master Catalog

Two Line Element Set (TLE):
1 52455U 22049E   23083.46513846  .00018370  00000-0  11679-2 0  9996
2 52455  53.2148 242.9259 0001182  76.7815 283.3309 15.08883327 49045
Source of the keplerian elements: AFSPC